Showing default

AQUA, 27424

Orbit data source: Space-Track

AQUA, 27424 is a payload satellite owned by GSFC (US) in SSO that was launched on Sat, 04 May 2002 UTC via a DELTA 7920-10L launch vehicle from the Air Force Western Test Range (AFWTR). Payload-class satellites include a variety of spacecraft equipped with specific instruments for various scientific and technological missions. These include communications satellites like Starlink; space stations such as the ISS; scientific satellites like the Hubble; Earth observation satellites from companies like Planet Labs, Umbra, and HawkEye 360; GPS; miniature CubeSats for education and research; and military/defense satellites.

Loading next visibility...
Identifier
27424, 2002-022A
Orbit
SSO
Country
Flag of USUS
Related business
Manufacturer
TRW
Mission
Operational Civil Imaging
Bus & Motor
T-330, AOCS
Mass
3,078 kg wet, 2,976 kg dry
Launch date (UTC)
2002-05-04 (24 years ago)
Launch vehicle
DELTA 7920-10L
Launch site
Air Force Western Test Range (AFWTR)
Object type
Payload
Rocket body
Debris
Shape & HBR
Box + 1 Pan, 15.8 m
Radar Cross Section
26.783 m², Large (>1 m²)

Expand to show TLE details & history
Last TLE update: 2 days ago

TLE from 2 days ago
0 AQUA
1 27424U 02022A   26171.42470413  .00000562  00000-0  12157-3 0  9999
2 27424  98.4278 140.7722 0000982  55.9702  96.4678 14.62162126283744
Epoch: 2026-06-20T10:11Z
TLE epoch observation values (Epoch: 2026-06-20T10:11:34.436Z)
Latitude
27.26924°
Longitude
-96.40438°
Altitude
689.664 km
Speed
7.514 km/s
True Right ascension
21h 40m 30s
True Declination
27° 07' 41"
Sunlit
Object was in daylight at epoch
Visualization orbit readout
Latitude
Unknown
Longitude
Unknown
Altitude
Unknown
Speed
Unknown
Apparent Right ascension
Unknown
Apparent Declination
Unknown
Sunlit
N/A
Visualization observer readout
Local Sidereal Time
23:27:17
Azimuth
Unknown
Elevation
Unknown
Doppler factor
Unknown
Orbital elements
Apogee altitude
683.984 km
Perigee altitude
682.597 km
Semi-major axis
7,061.427 km
Eccentricity
0.0001
Inclination
98.4278°
RAAN
140.7722°
Arg. of periapsis
55.9702°
True anomaly
96.47898°
Mean anomaly
96.4678°
Eccentric anomaly
96.47339°
Mean motion
3.65767 °/min
Orbital period
98.42 mins
BSTAR
0.00012157
Loading maneuver chart data...
Computing Atmospheric mass density...
Loading historical data...
Loading historical data...
Loading historical data...
Loading historical data...
Loading historical data...
Loading historical data...
Loading historical data...

Documentation

Showing up to 5 results
|